This demonstration page uses our WeatherBlox Daily Observations layout. Learn more.

Left ArrowRight Arrow

36.17497, -115.13722

Hourly Observations for January 25, 2016

Temp ( °F °C ) Dew Point ( °F °C ) Humidity (%) Winds ( mph kmh ) Pressure ( in mb ) Visibility ( mi km ) Precip ( " mm )
12:53 am 00:53 Clear 47 8.3 25 -3.9 42 42 N 5 7 30.13 1020 10 16 N/A
1:53 am 01:53 Clear 47 8.3 25 -3.9 42 42 N 7 11 30.14 1021 10 16 N/A
2:53 am 02:53 Clear 45 7.2 25 -3.9 46 46 N 3 6 30.15 1021 10 16 N/A
3:53 am 03:53 Clear 45 7.2 26 -3.3 48 48 N 5 7 30.16 1021 10 16 N/A
4:53 am 04:53 Clear 45 7.2 25 -3.9 46 46 N 10 17 30.16 1022 10 16 N/A
5:53 am 05:53 Clear 46 7.8 24 -4.4 42 42 N 10 17 30.19 1022 10 16 N/A
6:53 am 06:53 Sunny 47 8.3 23 -5 39 39 NNW 13 20 30.20 1023 10 16 N/A
7:53 am 07:53 Sunny 48 8.9 23 -5 37 37 N 10 17 30.23 1024 10 16 N/A
8:53 am 08:53 Sunny 52 11.1 22 -5.6 31 31 N 12 19 30.25 1024 10 16 N/A
9:53 am 09:53 Sunny 54 12.2 20 -6.7 26 26 NNE 9 15 30.27 1025 10 16 N/A
10:53 am 10:53 Sunny 54 12.2 20 -6.7 26 26 W 3 6 30.26 1025 10 16 N/A
11:53 am 11:53 Sunny 56 13.3 19 -7.2 24 24 NNW 13 20 30.23 1024 10 16 N/A
12:53 pm 12:53 Sunny 57 13.9 18 -7.8 22 22 N 17 28 30.20 1023 10 16 N/A
1:53 pm 13:53 Sunny 58 14.4 18 -7.8 21 21 NNW 18 30 30.19 1023 10 16 N/A
2:53 pm 14:53 Sunny 58 14.4 18 -7.8 21 21 NNW 13 20 30.20 1023 10 16 N/A
3:53 pm 15:53 Sunny 58 14.4 18 -7.8 21 21 NNW 13 20 30.21 1023 10 16 N/A
4:53 pm 16:53 Sunny 55 12.8 18 -7.8 23 23 NNW 12 19 30.22 1023 10 16 N/A
5:53 pm 17:53 Clear 54 12.2 17 -8.3 23 23 NNE 13 20 30.24 1024 10 16 N/A
6:53 pm 18:53 Clear 51 10.6 17 -8.3 26 26 NNE 6 9 30.27 1025 10 16 N/A
7:53 pm 19:53 Clear 50 10 17 -8.3 27 27 NNE 8 13 30.28 1026 10 16 N/A
8:53 pm 20:53 Clear 49 9.4 18 -7.8 29 29 N 10 17 30.29 1026 10 16 N/A
9:53 pm 21:53 Clear 48 8.9 18 -7.8 30 30 N 6 9 30.32 1027 10 16 N/A
10:53 pm 22:53 Clear 47 8.3 19 -7.2 33 33 N 10 17 30.33 1027 10 16 N/A
11:53 pm 23:53 Clear 46 7.8 19 -7.2 34 34 N 13 20 30.34 1028 10 16 N/A

Powered by AerisWeather